Regional Weather Roundup
Issued by NWS

Home | Current Version | Previous Version | Graphics & Text | Print | Product List | Glossary On
Versions: 1 2 3 4 5 6 7 8 9 10 11 12 13 14 15 16 17 18 19 20 21 22 23 24 25 26 27 28 29 30 31 32 33 34 35 36 37 38 39 40 41 42 43 44 45 46 47 48 49 50
000
ASUS43 KIND 301759
RWRIN

WEATHER ROUNDUP FOR INDIANA
NATIONAL WEATHER SERVICE INDIANAPOLIS IN
200 PM EDT TUE SEP 30 2014

NOTE: "FAIR" INDICATES FEW OR NO CLOUDS BELOW 12,000 FEET WITH NO
SIGNIFICANT WEATHER AND/OR OBSTRUCTIONS TO VISIBILITY.

* - STATION DOES NOT REPORT WEATHER SUCH AS PRECIPITATION OR FOG.

+ - STATION NOT QUALITY CONTROLLED BY THE NATIONAL WEATHER SERVICE.
    USE DATA WITH CAUTION...ESPECIALLY DEWPOINT AND RELATIVE
    HUMIDITY OBSERVATIONS.

INZ001>003-010>013-019-020-301900-
NORTHWEST INDIANA

CITY           SKY/WX    TMP DP  RH WIND       PRES   REMARKS
GARY /AIRPORT/ PTSUNNY   61  50  67 N14       30.04F
VALPARAISO     NOT AVBL

$$

LMZ046-743>745-301900-
SOUTHERN LAKE MICHIGAN

STATION/POSITION TIME  TEMP WIND        PRES
                       AIR  DIR/SP/G
                 (UTC) (F)  (DEG/KT/KT) (MB)
MICHIGAN CITY    1700   54  360/ 14/ 18   N/A

$$

INZ004-005-014>016-021>024-301900-
NORTH CENTRAL INDIANA

CITY           SKY/WX    TMP DP  RH WIND       PRES   REMARKS
ELKHART        CLOUDY    55  45  67 NE7       30.02S
SOUTH BEND     NOT AVBL

$$

INZ006>009-017-018-025>027-301900-
NORTHEAST INDIANA

CITY           SKY/WX    TMP DP  RH WIND       PRES   REMARKS
ANGOLA *+      CLOUDY    54  46  76 N6        30.00S
FORT WAYNE     CLOUDY    55  47  74 VRB6      30.00F
6HR MIN TEMP:  51; 6HR MAX TEMP:  55; 6HR PCP: TRACE;


$$

INZ028-029-035-036-043>045-051>053-301900-
WEST CENTRAL INDIANA

CITY           SKY/WX    TMP DP  RH WIND       PRES   REMARKS
GREENCASTLE +  PTSUNNY   64  55  72 N7        29.98F
LAFAYETTE      MOSUNNY   64  52  64 N8        29.99F
6HR MIN TEMP:  54; 6HR MAX TEMP:  64;

TERRE HAUTE    SUNNY     70  56  61 N7        29.97F
6HR MIN TEMP:  58; 6HR MAX TEMP:  71;


$$

INZ030>032-037>040-046>048-054>057-064-065-301900-
CENTRAL INDIANA

CITY           SKY/WX    TMP DP  RH WIND       PRES   REMARKS
ANDERSON       PTSUNNY   63  50  63 NW12      29.99F
INDIANAPOLIS   MOSUNNY   68  54  60 NW7       29.96F
6HR MIN TEMP:  57; 6HR MAX TEMP:  68;

-EAGLE CREEK   MOSUNNY   69  54  58 NW7       29.96F
6HR MIN TEMP:  57; 6HR MAX TEMP:  69;

KOKOMO *+      SUNNY     64  48  55 N6        29.99S
MT COMFORT *+  MOSUNNY   64  50  59 N6        29.98F
SHELBYVILLE    SUNNY     71  56  58 VRB5      29.96F
6HR MIN TEMP:  58; 6HR MAX TEMP:  72;


$$

INZ033-034-041-042-049-050-058-059-301900-
EAST CENTRAL INDIANA

CITY           SKY/WX    TMP DP  RH WIND       PRES   REMARKS
MUNCIE         CLOUDY    61  52  72 NE5       29.98F
6HR MIN TEMP:  56; 6HR MAX TEMP:  61;


$$

INZ060-061-067>069-081>083-085>088-301900-
SOUTHWEST INDIANA

CITY           SKY/WX    TMP DP  RH WIND       PRES   REMARKS
EVANSVILLE     SUNNY     84  56  38 W9        29.94F
6HR MIN TEMP:  57; 6HR MAX TEMP:  85;


$$

INZ062-063-066-070>080-084-089>092-301900-
SOUTH CENTRAL AND SOUTHEAST INDIANA

CITY           SKY/WX    TMP DP  RH WIND       PRES   REMARKS
BLOOMINGTON    MOSUNNY   68  58  70 VRB5      29.96F
6HR MIN TEMP:  53; 6HR MAX TEMP:  68;

SEYMOUR +      SUNNY     73  59  60 N5        29.95F

$$




USA.gov is the U.S. government's official web portal to all federal, state and local government web resources and services.